This is the latest recevied weather packets stored in our database for station/object KK6LVQ-13. If no packets are shown the sender has not sent any weather packets the latest 10 day(s).
| Time | Temp. | Humidity | Pressure | Rain* | Wind** | Luminosity | Snow |
|---|---|---|---|---|---|---|---|
| 1778096772 | 21.67° C | 60% | 1024.4 hPa | 0 mm | - | 828 W/m² | - |
| 1778096468 | 21.11° C | 61% | 1024.3 hPa | 0 mm | - | 824 W/m² | - |
| 1778096166 | 21.11° C | 59% | 1024.4 hPa | 0 mm | - | 842 W/m² | - |
| 1778095863 | 21.67° C | 59% | 1024.5 hPa | 0 mm | - | 818 W/m² | - |
| 1778095559 | 21.11° C | 65% | 1024.4 hPa | 0 mm | - | 663 W/m² | - |
| 1778095255 | 20.56° C | 64% | 1024.5 hPa | 0 mm | - | 598 W/m² | - |
| 1778094952 | 20.56° C | 62% | 1024.5 hPa | 0 mm | - | 761 W/m² | - |
| 1778094648 | 20.56° C | 66% | 1024.7 hPa | 0 mm | - | 432 W/m² | - |
| 1778094345 | 20° C | 67% | 1024.6 hPa | 0 mm | - | 309 W/m² | - |
| 1778094042 | 19.44° C | 67% | 1024.6 hPa | 0 mm | - | 388 W/m² | - |
| 1778093739 | 20° C | 66% | 1024.8 hPa | 0 mm | - | 759 W/m² | - |
| 1778093436 | 19.44° C | 67% | 1024.8 hPa | 0 mm | - | 781 W/m² | - |
| 1778093133 | 19.44° C | 67% | 1024.9 hPa | 0 mm | - | 821 W/m² | - |
| 1778092830 | 20° C | 66% | 1024.9 hPa | 0 mm | - | 764 W/m² | - |
| 1778092526 | 20° C | 64% | 1024.9 hPa | 0 mm | - | 729 W/m² | - |
| 1778092223 | 20° C | 65% | 1024.8 hPa | 0 mm | - | 735 W/m² | - |
| 1778091921 | 20.56° C | 64% | 1025 hPa | 0 mm | - | 721 W/m² | - |
| 1778091617 | 19.44° C | 66% | 1025 hPa | 0 mm | - | 711 W/m² | - |
| 1778091315 | 19.44° C | 66% | 1025.1 hPa | 0 mm | - | 694 W/m² | - |
| 1778091012 | 20° C | 65% | 1025 hPa | 0 mm | - | 683 W/m² | - |
| 1778090709 | 20° C | 65% | 1025 hPa | 0 mm | - | 677 W/m² | - |
| 1778090405 | 18.89° C | 68% | 1025 hPa | 0 mm | - | 669 W/m² | - |
| 1778090102 | 18.33° C | 70% | 1025.2 hPa | 0 mm | - | 671 W/m² | - |
| 1778089798 | 19.44° C | 68% | 1025.1 hPa | 0 mm | - | 657 W/m² | - |
| 1778089497 | 18.89° C | 68% | 1025.3 hPa | 0 mm | - | 640 W/m² | - |
* Rain latest hour (hover to see other rain measurements)
** Current wind speed in m/s (hover to see current wind gust speed)